Terminal Aerodrome Forecast
Issued by NWS

Home | Current Version | Previous Version | Graphics & Text | Print | Product List | Glossary On
Versions: 1 2 3 4 5 6 7 8 9 10 11 12 13 14 15 16 17 18 19
000
FTUS43 KBIS 182100 AAB
TAFJMS
TAF AMD
KJMS 182123Z 1821/1918 19016KT P6SM OVC012
     FM182200 17013KT P6SM SCT012
     FM190000 16010KT P6SM SCT250
     FM191200 29012KT P6SM FEW150=

USA.gov is the U.S. government's official web portal to all federal, state and local government web resources and services.